[[{"header":{"parameterUnit":"m.s-1","parameterCategory":1,"la1":30.2991,"la2":30.254,"lo1":-89.0895,"lo2":-89.0444,"dy":0.0017,"dx":0.0017,"nx":28,"ny":28,"refTime":"2023-07-29T03:00:00:Z","depth":0,"parameterNumber":2,"parameterNumberName":"U-component_of_WINDS"},"data":[0,0,0,0,0,0,0,0,0,0,0,0,0,0,0,0,0,0,0,0,0,0,0,0,0,0,0,0,0,0,0,0,0,0,0,0,0,0,0,0,0,0,0,0,0,0,0,0,0,0,0,0,0,0,0,0,0,0,1.9173,1.9174,0,1.9278,1.9279,1.928,1.9276,1.9274,1.9273,1.9272,1.9378,1.9382,1.9387,0,0,0,0,0,0,0,0,0,0,0,0,0,1.8968,1.8972,1.9173,1.9175,1.9176,1.9278,1.9279,1.928,1.9276,1.9274,1.9273,1.9271,1.9377,1.9382,1.9387,0,0,0,0,0,0,0,0,0,0,0,0,0,1.9063,1.8973,1.9173,1.9186,1.9188,1.9277,1.9279,1.9281,1.9277,1.9274,1.9272,1.927,1.9375,1.9381,1.9388,1.947,0,0,1.9407,1.941,0,0,0,0,0,0,0,0,1.9058,1.9071,1.9183,1.9185,1.9188,1.9262,1.9246,1.9344,1.9277,1.9243,1.9272,1.9269,1.9341,1.935,1.9375,1.9475,1.948,1.9407,1.9411,1.9414,1.9416,0,0,0,0,0,0,0,1.9051,1.9066,1.9215,1.9184,1.9188,1.9186,1.9197,1.9264,1.9303,1.9246,1.9246,1.9258,1.9342,1.9369,1.9377,1.9482,1.9407,1.9413,1.9417,1.9419,1.9653,1.9656,0,0,0,0,0,0,1.9042,1.9061,1.9211,1.9218,1.9116,1.9191,1.9204,1.924,1.9302,1.931,1.926,1.9258,1.9359,1.937,1.9381,1.948,1.9414,1.942,1.9423,1.9651,1.9654,1.9657,0,0,0,0,0,0,1.9038,1.9056,1.9207,1.9139,1.9158,1.9197,1.9238,1.9243,1.927,1.9313,1.932,1.928,1.9358,1.9372,1.9448,1.9484,1.9423,1.9428,1.9648,1.9652,1.9655,1.9681,0,0,0,0,0,0,1.9032,1.9054,1.9086,1.914,1.9162,1.9273,1.924,1.9247,1.9281,1.9279,1.9334,1.9341,1.9357,1.9438,1.9454,1.9492,1.9433,1.9645,1.965,1.9654,1.9677,1.9685,1.9692,0,0,0,0,0,1.9025,1.909,1.9088,1.9106,1.9204,1.9275,1.9287,1.9305,1.9284,1.9316,1.9344,1.9339,1.9478,1.9446,1.9464,1.9504,1.9643,1.9648,1.9654,1.9674,1.9683,1.9692,0,0,0,0,0,0,1.904,1.9097,1.9096,1.9181,1.9223,1.9274,1.9316,1.9315,1.9364,1.936,1.938,1.9392,1.9468,1.9494,1.9457,1.9586,1.9557,1.9567,1.9566,1.9576,1.9583,1.9575,1.9439,0,0,0,0,0,1.9053,1.9107,1.9154,1.9224,1.9245,1.9277,1.9309,1.9318,1.9363,1.9381,1.9414,1.9457,1.951,1.9545,1.9596,1.9681,1.9692,1.9717,1.9724,1.973,1.9738,1.9782,1.9794,1.9675,1.9675,1.9675,0,0,1.9081,1.9119,1.9152,1.9228,1.9262,1.9316,1.9292,1.9351,1.9391,1.939,1.9463,1.9488,1.9538,1.9618,1.9655,1.9642,1.9773,1.9737,1.9742,1.9746,1.9789,1.98,1.981,1.9678,1.9678,1.9677,0,0,1.9159,1.9194,1.9255,1.9289,1.9341,1.9361,1.9376,1.9427,1.9444,1.9517,1.9517,1.9565,1.9657,1.9691,1.9721,1.981,1.9807,1.9826,1.9865,1.9908,1.9917,1.9926,1.9956,1.9967,1.9834,1.9834,1.9834,0,1.9187,1.9269,1.9287,1.9345,1.9378,1.9379,1.9441,1.9473,1.9539,1.9561,1.9545,1.9659,1.9692,1.9779,1.9801,1.9826,1.9842,1.982,1.9915,1.9923,1.9931,1.996,1.9972,1.9836,1.9835,1.9835,1.9835,0,1.93,1.9356,1.94,1.9462,1.95,1.956,1.9586,1.9622,1.9628,1.965,1.9724,1.9764,1.9823,1.9844,1.9851,1.9932,1.9922,1.9911,1.9882,1.9944,1.9972,1.9983,1.9838,1.9838,1.9837,1.9837,0,0,1.939,1.9461,1.9477,1.9504,1.956,1.9604,1.9664,1.9721,1.975,1.9796,1.9845,1.9921,1.991,1.9944,1.9955,1.9993,2.0059,1.9977,1.9978,1.9989,2.0148,2.0156,2.0169,2.0058,2.006,2.0062,2.0144,0,1.9473,1.9578,1.9595,1.9687,1.9739,1.974,1.9791,1.9831,1.9852,1.9899,1.9923,1.9976,1.9959,1.9978,2.0017,2.0043,2.0091,2.0037,2.0102,2.0105,2.0089,2.0183,2.0192,2.0267,2.0155,2.0157,2.0158,0,1.9583,1.9631,1.9728,1.9775,1.9797,1.9843,1.9896,1.9941,1.9985,1.9998,2.0035,2.0041,2.0101,2.007,2.0153,2.0116,2.0143,2.016,2.0164,2.0169,2.0134,2.019,2.0292,2.0303,2.0176,2.0174,2.0173,0,1.9638,1.9726,1.9794,1.9818,1.9876,1.9908,1.9933,1.9975,2.0008,2.0054,2.0075,2.0128,2.0157,2.0197,2.0216,2.0192,2.0297,2.0268,2.0308,2.0308,2.033,2.0328,2.0436,2.035,2.0349,2.0349,2.0349,0,1.9727,1.9786,1.9819,1.9862,1.9927,1.9946,2.001,2.0034,2.0072,2.0118,2.0123,2.0166,2.0189,2.0236,2.0252,2.0317,2.033,2.0341,2.0344,2.034,2.0338,2.0358,2.0352,2.0352,2.0352,2.0351,2.035,0,1.9799,1.9823,1.9898,1.9946,1.996,2.0006,2.0047,2.0087,2.0108,2.0166,2.0181,2.0214,2.0269,2.0292,2.036,2.0371,2.0444,2.0445,2.0429,2.043,2.0468,2.0464,2.0591,2.0608,2.0512,2.0513,2.0514,0,1.9854,1.9899,1.9951,1.9983,2.0009,2.006,2.0092,2.0112,2.0146,2.0199,2.0233,2.0288,2.0333,2.042,2.045,2.0501,2.0501,2.0543,2.0509,2.0503,2.05,2.0496,2.05,2.0548,2.0549,2.055,2.0551,0,1.9948,1.9957,2.0005,2.0057,2.0096,2.0138,2.0178,2.0204,2.0229,2.0267,2.0323,2.0358,2.0426,2.048,2.0533,2.0558,2.0558,2.0561,2.0573,2.0568,2.0557,2.0562,2.0444,2.0558,2.0557,2.0557,2.0556,2.0556,2.0012,2.0051,2.0094,2.0146,2.0179,2.0216,2.0256,2.0282,2.0329,2.0386,2.0395,2.0454,2.0495,2.0566,2.0594,2.064,2.0629,2.0647,2.0651,2.0655,2.0656,2.055,2.065,2.065,2.0649,2.0649,2.0649,0,2.0105,2.0132,2.018,2.0236,2.0277,2.0274,2.0318,2.0352,2.0404,2.0443,2.0487,2.055,2.0602,2.0635,2.0688,2.0718,2.0719,2.0731,2.0728,2.0734,2.0663,2.0647,2.0729,2.0729,2.0729,2.0729,2.0729,2.0729,2.0158,2.0224,2.0238,2.032,2.0347,2.0405,2.043,2.0464,2.0495,2.0565,2.0608,2.063,2.0666,2.0721,2.0768,2.0776,2.0794,2.0806,2.0814,2.0747,2.0739,2.0731,2.0716,2.081,2.0811,2.088,2.0881,2.0881]},{"header":{"parameterUnit":"m.s-1","parameterCategory":1,"la1":30.2991,"la2":30.254,"lo1":-89.0895,"lo2":-89.0444,"dy":0.0017,"dx":0.0017,"nx":28,"ny":28,"refTime":"2023-07-29T03:00:00:Z","depth":0,"parameterNumber":3,"parameterNumberName":"V-component_of_WINDS"},"data":[0,0,0,0,0,0,0,0,0,0,0,0,0,0,0,0,0,0,0,0,0,0,0,0,0,0,0,0,0,0,0,0,0,0,0,0,0,0,0,0,0,0,0,0,0,0,0,0,0,0,0,0,0,0,0,0,0,0,4.3418,4.3418,0,4.3362,4.3361,4.336,4.3234,4.3232,4.3229,4.3227,4.317,4.3171,4.3172,0,0,0,0,0,0,0,0,0,0,0,0,0,4.3418,4.3419,4.3418,4.3418,4.3417,4.3362,4.3361,4.336,4.3235,4.3232,4.3228,4.3226,4.317,4.3171,4.3172,0,0,0,0,0,0,0,0,0,0,0,0,0,4.3396,4.3419,4.3418,4.3348,4.3341,4.3362,4.3361,4.336,4.3235,4.3232,4.3228,4.3224,4.317,4.3171,4.3172,4.3258,0,0,4.3176,4.3177,0,0,0,0,0,0,0,0,4.3397,4.3396,4.3359,4.3353,4.3345,4.3301,4.334,4.3326,4.3236,4.3275,4.3227,4.3222,4.3217,4.3214,4.3212,4.3255,4.3253,4.3176,4.3177,4.3178,4.3178,0,0,0,0,0,0,0,4.3399,4.3398,4.3396,4.3358,4.335,4.3319,4.3311,4.3337,4.3269,4.3272,4.3262,4.3257,4.3212,4.3211,4.321,4.3252,4.3176,4.3178,4.3178,4.3179,4.336,4.3364,0,0,0,0,0,0,4.341,4.34,4.3398,4.3394,4.3362,4.3322,4.3313,4.3319,4.3268,4.3256,4.3261,4.3252,4.3211,4.3208,4.3207,4.3302,4.3178,4.3179,4.318,4.3356,4.3361,4.3366,0,0,0,0,0,0,4.3411,4.3412,4.34,4.3394,4.339,4.3326,4.3333,4.332,4.3318,4.326,4.3247,4.3272,4.3208,4.3205,4.3246,4.3299,4.318,4.3181,4.3352,4.3358,4.3363,4.3495,0,0,0,0,0,0,4.3412,4.3412,4.3445,4.3396,4.3391,4.344,4.3336,4.3322,4.3321,4.3309,4.3267,4.3256,4.3204,4.3244,4.3247,4.3299,4.3182,4.3347,4.3354,4.3362,4.3486,4.3505,4.3521,0,0,0,0,0,4.3412,4.3485,4.3447,4.3447,4.343,4.3443,4.344,4.3379,4.3326,4.3357,4.3319,4.3257,4.3293,4.325,4.3252,4.3304,4.3343,4.3352,4.3361,4.3478,4.3501,4.3521,0,0,0,0,0,0,4.3542,4.3477,4.3434,4.3493,4.3475,4.3422,4.3459,4.3406,4.3402,4.3391,4.3315,4.3307,4.3357,4.3335,4.3287,4.3383,4.3308,4.3318,4.3396,4.3418,4.3435,4.3439,4.3183,0,0,0,0,0,4.3578,4.3593,4.3536,4.3594,4.3586,4.3525,4.3528,4.3482,4.346,4.3452,4.3416,4.3397,4.3404,4.341,4.3413,4.3482,4.347,4.3519,4.3537,4.3552,4.3561,4.3594,4.3615,4.3395,4.3395,4.3395,0,0,4.3651,4.3618,4.3632,4.3619,4.3599,4.3616,4.3519,4.3543,4.3555,4.3455,4.349,4.3464,4.3438,4.3493,4.3515,4.3476,4.3619,4.3564,4.3576,4.3577,4.3606,4.3627,4.3645,4.3401,4.34,4.3399,0,0,4.3794,4.3771,4.3815,4.3797,4.3767,4.3726,4.3737,4.3692,4.367,4.3704,4.3629,4.3643,4.3656,4.364,4.3633,4.3768,4.3711,4.3772,4.3864,4.3898,4.3915,4.393,4.3976,4.3994,4.3781,4.3781,4.3782,0,4.3889,4.3913,4.3845,4.3873,4.3868,4.3778,4.3822,4.3808,4.3782,4.3781,4.3737,4.375,4.3726,4.3775,4.3808,4.3806,4.3815,4.3776,4.3918,4.3932,4.3945,4.3989,4.4007,4.3789,4.3788,4.3787,4.3787,0,4.403,4.4048,4.4087,4.4063,4.4063,4.4099,4.4037,4.4045,4.3999,4.3962,4.3997,4.3965,4.3959,4.3967,4.3923,4.401,4.3986,4.3932,4.3854,4.3975,4.4014,4.403,4.38,4.3797,4.3795,4.3793,0,0,4.4254,4.419,4.4206,4.4192,4.4153,4.4165,4.4197,4.419,4.4198,4.4182,4.4206,4.4219,4.4167,4.416,4.4113,4.4143,4.425,4.4084,4.4082,4.4114,4.4341,4.4381,4.4402,4.4212,4.4215,4.4217,4.4343,0,4.4386,4.4435,4.4375,4.4437,4.4452,4.4366,4.4393,4.4372,4.4338,4.4345,4.4308,4.4317,4.425,4.4244,4.427,4.4232,4.4294,4.4222,4.4232,4.4233,4.424,4.4423,4.4466,4.4586,4.4358,4.436,4.4362,0,4.4547,4.4538,4.4602,4.4556,4.456,4.4585,4.4573,4.4582,4.4555,4.4528,4.452,4.4463,4.449,4.4416,4.4451,4.4403,4.4404,4.4386,4.4389,4.4387,4.4305,4.4424,4.4623,4.4641,4.4386,4.4384,4.4383,0,4.4701,4.4705,4.4743,4.4735,4.4683,4.4703,4.4682,4.4652,4.4651,4.4641,4.464,4.4633,4.463,4.4626,4.4569,4.452,4.4611,4.4532,4.4589,4.459,4.4611,4.461,4.4812,4.4614,4.4614,4.4614,4.4613,0,4.4854,4.4896,4.4811,4.4835,4.4879,4.4809,4.4855,4.4825,4.4799,4.4815,4.4741,4.4757,4.4681,4.469,4.4645,4.4681,4.468,4.4659,4.4646,4.4665,4.4667,4.4663,4.4653,4.4618,4.4617,4.4616,4.4616,0,4.5034,4.4979,4.5014,4.4962,4.495,4.4985,4.494,4.4959,4.492,4.4941,4.4942,4.4881,4.4887,4.483,4.4825,4.4795,4.485,4.4824,4.4859,4.485,4.491,4.4905,4.5115,4.5138,4.4928,4.493,4.4931,0,4.5135,4.5165,4.5115,4.512,4.5103,4.5113,4.5111,4.5043,4.5045,4.5016,4.5039,4.5038,4.5034,4.5047,4.5002,4.4998,4.497,4.5044,4.4969,4.4986,4.4969,4.4968,4.4969,4.5059,4.5062,4.5064,4.5066,0,4.5319,4.529,4.529,4.5281,4.5281,4.5271,4.5255,4.5264,4.519,4.5195,4.52,4.5196,4.5191,4.5191,4.5177,4.5156,4.5099,4.509,4.5102,4.5121,4.514,4.5129,4.4901,4.5085,4.5083,4.5082,4.5081,4.508,4.5461,4.5483,4.5451,4.5453,4.5435,4.5422,4.5437,4.5399,4.5402,4.5391,4.5351,4.5363,4.5334,4.531,4.5294,4.5301,4.5265,4.5284,4.5288,4.5294,4.5304,4.514,4.5299,4.5298,4.5297,4.5297,4.5296,0,4.564,4.5615,4.5618,4.5598,4.56,4.5546,4.5526,4.5531,4.5541,4.5519,4.5516,4.5521,4.552,4.5475,4.5469,4.5484,4.5457,4.5484,4.5482,4.5478,4.5337,4.5326,4.5506,4.5506,4.5506,4.5505,4.5505,4.5505,4.5733,4.5766,4.5734,4.5757,4.5732,4.5742,4.5735,4.5722,4.5704,4.5712,4.5711,4.5681,4.565,4.564,4.5637,4.5624,4.5624,4.566,4.5638,4.5508,4.5488,4.5468,4.5457,4.5661,4.5662,4.5777,4.5778,4.5779]}]]